Temp
73 73 73 73 72 72 74 75 74 75 75 75 75 75 75 76 75 76 75 75 74 73 72 73 73 73 75 73 74 75 75 75 75 74 74 74 74 74 74 74 74 72 73 73 72 73 73 73 73 73 73 73 74 70 72 72 71 70 68 68 69 70
73 73 73 73 73 73 73 74 72 72 73 74 75 75 74 74 75 73 75 73 72 73 71 71 71 74 72 73 74 75 75 75 74 74 74 74 74 74 74 74 73 73 73 72 73 69 69 72 74 74 73 75 69 68 71 71 70 69 69 68 68 71
74 73 73 73 73 72 72 72 72 72 73 74 75 74 72 73 72 73 73 72 71 70 70 70 71 73 72 73 73 75 75 75 75 74 74 74 74 73 73 73 74 74 72 72 71 69 68 68 69 74 74 70 68 70 71 71 70 69 68 68 68 74
71 68 69 72 73 72 72 72 71 72 71 71 72 73 72 72 73 72 71 69 69 70 70 70 76 76 74 72 72 74 74 75 75 74 74 73 73 73 73 73 73 73 71 71 70 69 71 70 70 69 69 69 70 72 72 71 70 69 68 71 71 74
69 68 68 68 72 72 73 73 72 72 71 70 71 71 70 71 71 71 70 69 69 69 69 69 69 70 69 70 69 70 71 70 70 69 72 67 68 70 69 69 68 69 67 69 70 71 70 70 68 68 68 70 71 73 72 71 70 69 68 68 69 73
69 68 68 68 70 73 74 72 72 72 72 71 70 69 69 68 69 69 69 69 69 68 68 68 68 68 69 69 69 68 69 69 68 68 69 67 67 68 68 69 68 68 68 70 71 71 69 68 68 68 69 71 73 73 72 71 70 69 68 67 70 73
68 68 69 69 69 70 69 69 72 72 71 69 68 68 68 68 68 69 69 69 68 67 67 67 68 68 67 68 68 68 68 68 68 68 68 67 69 69 69 69 68 68 69 71 72 72 68 68 68 68 68 71 70 72 71 70 70 69 67 68 71 73
68 68 68 69 69 68 69 69 72 73 70 70 69 68 67 67 68 68 69 68 68 68 67 67 67 67 68 68 68 69 69 68 70 69 69 69 69 68 68 68 70 71 72 73 74 71 69 69 68 67 69 69 69 69 68 70 70 69 68 68 68 72
69 68 68 68 69 68 69 69 69 69 69 71 68 68 68 68 67 68 68 69 69 67 67 68 67 67 68 68 67 67 68 68 70 69 69 68 69 68 68 69 70 71 72 72 71 69 69 68 67 68 68 67 65 66 67 69 70 69 68 67 67 70
69 68 68 69 69 68 68 67 68 69 68 69 67 68 68 67 67 67 67 69 69 68 68 67 67 67 68 66 66 66 67 66 68 68 69 69 70 69 69 68 69 70 73 72 71 69 68 69 70 68 68 67 66 66 67 67 71 69 68 67 67 69
68 69 68 68 68 68 67 67 68 68 68 68 68 68 67 67 67 67 67 69 69 69 68 68 68 67 67 66 66 66 67 67 68 69 69 70 70 71 69 70 70 70 72 72 70 69 70 68 68 68 68 67 66 66 67 67 68 69 69 68 67 68
68 68 68 68 68 67 67 67 68 68 68 69 69 67 67 67 67 67 68 68 68 68 68 68 67 67 66 66 66 67 68 68 68 69 70 70 69 70 70 71 73 72 70 71 69 67 68 67 67 67 67 66 66 66 66 67 67 68 69 67 67 66
68 68 67 67 67 67 67 68 68 67 68 69 68 68 67 67 68 68 68 68 68 68 68 67 67 67 67 66 66 67 68 68 70 69 69 69 69 69 70 69 69 71 69 69 68 66 66 66 65 65 66 66 66 66 67 67 67 67 68 67 66 66
69 68 67 66 67 67 68 68 68 67 68 68 67 67 67 67 68 68 68 68 68 68 67 67 67 66 66 66 67 68 68 68 70 70 69 69 68 69 69 70 69 68 69 68 66 64 64 64 64 64 65 66 65 65 66 67 67 66 68 67 66 66
69 67 67 66 67 67 68 68 66 66 66 67 67 66 67 67 67 68 68 68 68 68 67 67 68 67 67 67 66 67 67 68 70 69 70 69 68 68 68 67 67 66 66 66 64 65 65 64 63 64 64 65 65 65 65 66 66 68 68 66 66 65
68 67 66 67 67 67 68 67 67 67 66 67 66 66 66 67 67 67 68 67 68 68 68 68 68 67 67 67 67 67 67 68 69 69 69 69 68 66 66 66 66 67 64 64 65 64 64 63 64 64 64 64 64 65 64 65 67 67 67 66 66 65
67 67 67 67 68 68 67 66 66 66 66 66 66 66 66 67 67 67 67 67 68 68 68 68 68 69 67 67 67 68 69 69 69 68 67 67 68 66 66 66 66 65 64 64 64 64 63 63 63 64 64 64 64 64 65 65 65 66 67 66 65 65
68 68 68 68 68 68 67 66 65 65 66 66 67 67 67 67 66 67 67 66 67 67 67 67 67 66 65 66 66 66 65 67 68 68 67 67 66 66 66 65 64 65 65 65 63 63 63 63 64 63 64 64 64 64 64 65 66 66 65 65 65 65
69 69 68 68 69 68 66 66 65 65 65 66 67 66 66 66 66 67 66 67 67 67 67 67 67 66 65 65 65 65 65 66 66 66 67 67 65 66 66 65 64 64 65 65 63 64 63 63 64 64 63 63 64 64 65 65 65 64 64 65 66 67
69 69 69 68 68 66 65 64 64 63 63 65 65 66 65 66 66 66 67 67 67 66 66 66 66 66 65 65 65 65 66 66 65 66 66 65 64 65 64 64 65 64 64 64 64 64 64 63 63 64 64 64 64 64 64 64 64 64 64 64 64 64
68 69 68 68 67 66 64 64 64 63 62 63 64 65 65 66 66 66 67 67 67 66 65 66 66 66 65 66 65 65 65 65 65 66 66 65 65 65 65 64 64 63 64 62 62 64 64 64 63 61 62 62 62 63 64 64 62 62 63 63 63 63
69 69 68 68 67 67 67 66 64 63 63 63 64 64 64 65 65 66 66 65 66 66 66 66 66 66 66 65 65 65 65 65 65 65 66 66 66 66 65 64 64 63 64 63 61 63 64 64 60 60 59 58 59 61 62 62 63 63 63 64 64 63
68 68 68 68 68 67 68 68 66 63 64 63 65 65 66 66 65 66 65 65 65 66 66 66 67 67 67 67 66 65 65 64 65 66 64 64 64 64 64 64 64 63 62 61 62 64 63 61 59 60 60 59 56 56 58 59 61 62 63 63 64 64
67 67 68 68 68 69 69 68 67 66 66 65 63 66 65 65 65 65 64 66 65 65 66 66 67 67 68 68 67 66 65 64 65 66 65 64 64 63 63 63 63 63 63 60 59 61 63 62 62 62 56 54 56 57 55 55 57 60 63 63 63 63
66 66 66 69 68 68 69 67 67 67 67 65 65 65 64 64 64 65 65 65 65 66 66 66 67 68 68 68 67 67 66 66 66 66 66 64 63 63 63 64 64 64 63 61 60 60 62 63 63 63 59 57 55 54 54 55 58 58 61 61 63 63
64 65 67 68 69 69 68 67 64 63 63 63 62 63 63 63 63 64 64 66 66 67 67 67 67 68 69 67 67 67 66 66 66 66 65 64 64 63 63 63 63 64 63 63 63 62 60 62 63 64 62 60 58 54 56 58 57 53 60 62 61 63
67 68 68 68 69 68 67 67 66 65 65 64 62 63 64 65 65 65 65 64 65 66 67 67 67 67 68 68 67 67 66 66 67 66 65 64 63 63 63 64 64 63 64 64 63 61 61 61 61 62 63 63 63 61 63 60 54 56 54 58 60 59
68 69 69 69 69 68 67 66 65 65 65 63 63 63 64 64 64 64 64 64 64 65 66 67 67 67 68 68 67 67 67 67 66 65 65 63 63 64 64 65 64 64 64 64 64 62 61 61 61 60 61 62 62 63 65 60 62 60 57 55 56 60
66 68 68 69 69 68 68 67 66 66 64 64 65 64 64 64 63 64 63 63 64 65 66 67 68 68 68 68 68 68 68 67 64 64 65 64 65 65 64 64 63 63 63 63 63 63 63 61 61 60 59 59 60 61 61 62 62 61 57 56 55 56
65 68 69 69 69 68 68 67 66 66 65 64 64 64 64 63 63 63 62 63 63 63 64 65 67 68 68 69 68 68 68 67 64 65 65 65 65 66 65 65 64 63 64 63 62 64 63 62 62 62 61 60 59 59 60 60 59 60 60 60 57 58
66 67 68 68 68 68 68 68 67 67 66 65 64 63 62 62 62 62 62 62 61 62 63 65 66 68 67 68 68 68 68 67 64 66 66 65 65 65 64 65 65 64 64 64 63 63 62 62 62 62 61 61 60 61 59 57 59 60 58 57 58 58
67 67 68 68 68 68 69 68 67 67 66 65 64 64 62 62 62 62 62 61 60 61 62 64 65 65 66 67 67 67 68 66 65 65 64 64 64 65 65 64 63 63 64 63 63 63 62 62 62 62 61 61 60 61 60 60 60 60 60 60 61 59
66 67 67 68 68 68 68 68 68 68 66 65 65 64 63 62 62 62 61 61 60 61 61 63 64 65 65 66 66 67 66 65 65 64 64 64 65 66 64 63 63 64 63 63 62 62 62 62 62 62 61 61 61 62 61 61 62 61 60 62 62 60
67 67 67 68 68 68 68 68 68 68 67 66 64 64 64 63 63 63 63 62 62 62 63 64 65 66 67 67 67 67 67 66 66 65 64 64 64 64 64 64 63 63 63 63 63 62 62 62 62 62 63 62 62 61 61 62 62 62 62 61 60 61
66 67 68 68 68 68 68 68 67 67 67 66 65 64 64 65 64 63 64 64 64 64 65 66 67 67 67 67 66 66 66 65 65 65 65 64 64 63 63 64 64 64 63 63 63 62 62 62 63 62 62 62 62 61 61 61 63 63 64 63 62 61
62 65 66 68 68 68 67 68 67 66 66 66 66 66 66 65 65 65 65 65 66 66 66 66 67 67 67 67 66 66 66 66 66 66 65 65 64 63 63 63 63 63 63 65 62 61 61 62 62 63 62 62 62 61 61 62 63 63 64 64 63 61
60 62 65 67 68 68 67 66 66 66 66 66 65 66 66 66 66 66 66 66 66 66 66 67 67 67 67 67 67 67 66 66 66 66 65 64 64 64 63 63 63 62 62 63 62 62 61 62 62 62 62 62 62 61 62 63 64 64 64 64 64 63
MSLP
1015.16 1015.32 1015.44 1015.60 1015.72 1015.80 1015.92 1016.00 1016.16 1016.24 1016.32 1016.40 1016.44 1016.52 1016.60 1016.68 1016.76 1016.92 1017.00 1017.20 1017.36 1017.48 1017.64 1017.76 1017.88 1018.00 1018.12 1018.28 1018.40 1018.52 1018.68 1018.88 1019.04 1019.16 1019.28 1019.40 1019.52 1019.64 1019.72 1019.84 1019.88 1019.84 1019.84 1019.92 1019.96 1019.92 1019.88 1019.92 1019.88 1019.92 1019.96 1020.08 1020.20 1020.36 1020.40 1020.48 1020.72 1021.00 1021.28 1021.44 1021.48 1021.48
1015.28 1015.44 1015.56 1015.60 1015.68 1015.76 1015.92 1016.04 1016.20 1016.28 1016.40 1016.48 1016.52 1016.56 1016.64 1016.76 1016.92 1017.00 1017.12 1017.32 1017.44 1017.56 1017.72 1017.88 1018.00 1018.04 1018.20 1018.32 1018.48 1018.56 1018.72 1018.88 1019.04 1019.20 1019.32 1019.44 1019.56 1019.68 1019.80 1019.88 1019.96 1019.92 1019.92 1019.96 1019.96 1020.00 1020.00 1019.96 1019.92 1019.96 1020.04 1020.20 1020.44 1020.56 1020.64 1020.64 1020.88 1021.12 1021.44 1021.56 1021.60 1021.60
1015.20 1015.40 1015.44 1015.48 1015.56 1015.72 1015.84 1015.92 1016.04 1016.16 1016.28 1016.40 1016.44 1016.52 1016.68 1016.84 1017.00 1017.12 1017.24 1017.40 1017.52 1017.68 1017.84 1017.96 1018.04 1018.16 1018.24 1018.36 1018.52 1018.64 1018.80 1018.96 1019.08 1019.24 1019.36 1019.48 1019.56 1019.72 1019.80 1019.92 1020.00 1020.00 1020.04 1020.08 1020.08 1020.12 1020.04 1020.00 1020.00 1020.00 1020.08 1020.36 1020.60 1020.72 1020.84 1020.80 1021.04 1021.32 1021.60 1021.68 1021.68 1021.68
1014.92 1014.76 1014.60 1015.00 1015.44 1015.72 1015.84 1015.80 1015.88 1016.04 1016.24 1016.36 1016.40 1016.52 1016.72 1016.84 1017.00 1017.08 1017.28 1017.48 1017.60 1017.76 1017.88 1018.00 1018.00 1018.08 1018.28 1018.44 1018.56 1018.72 1018.84 1018.96 1019.08 1019.24 1019.36 1019.52 1019.60 1019.72 1019.80 1019.92 1020.04 1020.08 1020.12 1020.20 1020.24 1020.24 1020.16 1020.12 1020.12 1020.12 1020.28 1020.56 1020.64 1020.88 1021.00 1021.00 1021.20 1021.44 1021.64 1021.80 1021.84 1021.84
1013.68 1013.64 1013.92 1014.68 1015.24 1015.72 1015.72 1015.76 1015.80 1015.92 1016.12 1016.24 1016.40 1016.56 1016.72 1016.84 1016.96 1017.16 1017.32 1017.52 1017.68 1017.80 1017.92 1018.04 1018.12 1018.28 1018.48 1018.52 1018.68 1018.88 1018.96 1019.08 1019.20 1019.36 1019.40 1019.64 1019.72 1019.80 1019.88 1020.04 1020.12 1020.20 1020.24 1020.28 1020.36 1020.32 1020.32 1020.32 1020.28 1020.36 1020.64 1020.60 1020.64 1020.88 1021.04 1021.16 1021.36 1021.52 1021.76 1021.96 1022.00 1022.00
1014.04 1013.60 1013.68 1013.88 1014.32 1014.68 1015.00 1015.40 1015.68 1015.88 1016.00 1016.12 1016.32 1016.56 1016.68 1016.84 1016.92 1017.12 1017.32 1017.52 1017.72 1017.92 1018.04 1018.12 1018.20 1018.40 1018.56 1018.60 1018.80 1018.96 1019.04 1019.12 1019.32 1019.44 1019.40 1019.68 1019.76 1019.88 1019.96 1020.00 1020.16 1020.28 1020.32 1020.32 1020.32 1020.32 1020.32 1020.36 1020.44 1020.60 1020.80 1020.88 1020.96 1021.12 1021.16 1021.36 1021.44 1021.60 1021.92 1022.12 1022.20 1022.20
1014.16 1014.20 1014.56 1014.40 1013.92 1013.96 1014.44 1014.80 1015.20 1015.60 1015.92 1016.16 1016.24 1016.52 1016.72 1016.80 1016.92 1017.08 1017.24 1017.44 1017.80 1018.04 1018.16 1018.20 1018.32 1018.48 1018.64 1018.64 1018.84 1018.92 1019.04 1019.12 1019.32 1019.44 1019.36 1019.56 1019.64 1019.68 1019.84 1019.96 1020.12 1020.20 1020.24 1020.28 1020.32 1020.28 1020.36 1020.48 1020.48 1020.80 1021.00 1021.16 1021.24 1021.36 1021.52 1021.60 1021.60 1021.72 1021.96 1022.20 1022.32 1022.32
1013.80 1014.00 1014.48 1014.56 1014.56 1014.12 1014.04 1014.40 1014.76 1015.12 1015.48 1015.76 1016.12 1016.48 1016.64 1016.72 1016.84 1017.00 1017.08 1017.32 1017.56 1017.88 1018.12 1018.32 1018.40 1018.52 1018.60 1018.68 1018.88 1018.92 1018.96 1019.12 1019.28 1019.32 1019.24 1019.36 1019.56 1019.60 1019.68 1019.76 1019.96 1020.04 1020.12 1020.16 1020.28 1020.28 1020.40 1020.52 1020.60 1020.88 1021.16 1021.44 1021.64 1021.92 1021.76 1021.76 1021.72 1021.72 1022.04 1022.32 1022.44 1022.44
1013.60 1013.96 1014.12 1014.16 1014.40 1014.36 1014.04 1014.24 1014.60 1014.88 1015.20 1015.36 1015.92 1016.28 1016.48 1016.64 1016.88 1016.96 1017.04 1017.20 1017.40 1017.88 1018.08 1018.20 1018.40 1018.52 1018.56 1018.76 1018.88 1018.96 1019.04 1019.16 1019.20 1019.24 1019.24 1019.44 1019.52 1019.64 1019.64 1019.72 1019.84 1019.96 1019.96 1020.12 1020.24 1020.36 1020.40 1020.64 1020.76 1021.00 1021.32 1021.76 1022.44 1022.48 1022.04 1021.80 1021.72 1021.76 1022.12 1022.48 1022.60 1022.56
1013.56 1013.72 1013.80 1013.92 1014.04 1014.24 1014.28 1014.44 1014.44 1014.72 1014.96 1015.16 1015.72 1016.04 1016.28 1016.56 1016.80 1016.96 1017.12 1017.12 1017.28 1017.56 1017.88 1018.08 1018.28 1018.40 1018.60 1018.80 1018.88 1018.92 1019.04 1019.16 1019.16 1019.08 1019.16 1019.44 1019.44 1019.60 1019.64 1019.72 1019.80 1019.88 1019.88 1020.08 1020.24 1020.28 1020.40 1020.68 1020.88 1021.00 1021.36 1021.84 1022.36 1022.64 1022.40 1021.96 1021.64 1021.88 1022.32 1022.68 1022.76 1022.68
1013.48 1013.44 1013.60 1013.80 1014.00 1014.24 1014.52 1014.60 1014.60 1014.76 1014.80 1015.00 1015.36 1015.84 1016.16 1016.44 1016.68 1016.92 1017.04 1017.08 1017.28 1017.48 1017.72 1017.92 1018.12 1018.36 1018.56 1018.76 1018.88 1018.92 1018.96 1018.96 1019.08 1018.96 1018.96 1019.16 1019.24 1019.36 1019.44 1019.60 1019.80 1019.88 1019.80 1019.96 1020.16 1020.28 1020.52 1020.84 1020.96 1021.08 1021.40 1021.84 1022.48 1022.60 1022.28 1022.08 1021.72 1022.00 1022.56 1022.88 1022.92 1022.84
1013.36 1013.48 1013.80 1014.08 1014.12 1014.28 1014.64 1014.76 1014.92 1015.04 1014.92 1014.92 1015.12 1015.64 1016.00 1016.28 1016.52 1016.76 1016.88 1017.04 1017.24 1017.40 1017.64 1017.88 1018.08 1018.32 1018.52 1018.72 1018.84 1018.88 1018.92 1019.04 1019.04 1018.92 1018.80 1018.84 1019.04 1019.12 1019.28 1019.36 1019.44 1019.56 1019.56 1019.84 1020.36 1020.64 1020.76 1021.04 1021.24 1021.28 1021.44 1021.84 1021.92 1022.08 1021.96 1021.96 1021.72 1022.12 1022.76 1023.08 1023.12 1023.04
1013.36 1013.76 1014.08 1014.24 1014.28 1014.36 1014.60 1014.80 1015.08 1015.28 1015.20 1015.08 1015.20 1015.52 1015.88 1016.16 1016.36 1016.56 1016.72 1016.84 1017.08 1017.28 1017.52 1017.80 1018.08 1018.24 1018.44 1018.64 1018.76 1018.92 1019.08 1019.16 1019.12 1018.88 1018.76 1018.80 1018.88 1019.00 1019.20 1019.32 1019.60 1019.60 1019.88 1020.12 1020.56 1021.28 1021.80 1021.80 1021.72 1021.64 1021.60 1021.88 1021.92 1022.16 1021.92 1022.00 1022.08 1022.28 1022.76 1023.20 1023.20 1023.08
1013.28 1013.96 1014.32 1014.36 1014.40 1014.68 1014.80 1014.84 1015.04 1015.28 1015.32 1015.36 1015.44 1015.64 1015.88 1016.04 1016.24 1016.44 1016.52 1016.68 1016.88 1017.12 1017.40 1017.64 1017.88 1018.20 1018.36 1018.60 1018.76 1018.92 1019.04 1019.04 1018.96 1018.72 1018.68 1018.76 1019.00 1019.08 1019.32 1019.52 1019.80 1019.96 1020.28 1020.64 1021.16 1021.76 1022.12 1022.12 1022.12 1022.12 1022.00 1021.96 1022.04 1022.12 1022.08 1022.40 1022.40 1022.56 1022.80 1023.12 1023.12 1023.12
1013.48 1014.08 1014.48 1014.64 1014.68 1014.88 1014.92 1014.92 1015.04 1015.24 1015.36 1015.40 1015.48 1015.68 1015.92 1016.04 1016.20 1016.28 1016.44 1016.60 1016.76 1017.00 1017.28 1017.52 1017.72 1018.08 1018.32 1018.48 1018.72 1018.88 1018.92 1018.92 1018.72 1018.60 1018.76 1018.84 1019.08 1019.32 1019.56 1019.84 1019.96 1020.24 1020.60 1020.92 1021.16 1021.48 1021.52 1021.64 1021.92 1022.16 1022.24 1021.92 1022.20 1022.28 1022.12 1022.56 1022.88 1022.76 1022.76 1023.04 1023.12 1023.16
1013.76 1014.32 1014.68 1014.80 1014.92 1015.00 1014.96 1014.88 1014.96 1015.20 1015.40 1015.40 1015.44 1015.64 1015.84 1016.00 1016.12 1016.24 1016.36 1016.52 1016.64 1016.92 1017.24 1017.44 1017.60 1017.88 1018.16 1018.40 1018.64 1018.80 1018.92 1018.80 1018.64 1018.64 1018.84 1019.00 1019.12 1019.64 1019.88 1020.16 1020.24 1020.44 1021.32 1021.44 1021.40 1021.92 1021.88 1022.00 1022.08 1022.28 1022.36 1022.08 1022.36 1022.64 1022.56 1022.60 1022.72 1022.64 1022.72 1022.88 1023.08 1023.20
1014.12 1014.44 1014.84 1015.04 1015.12 1015.12 1015.04 1015.08 1015.24 1015.44 1015.52 1015.44 1015.52 1015.60 1015.64 1015.80 1016.04 1016.24 1016.36 1016.52 1016.56 1016.76 1017.04 1017.28 1017.52 1017.72 1018.04 1018.32 1018.56 1018.88 1018.92 1018.84 1018.68 1018.80 1018.96 1019.08 1019.36 1019.76 1019.96 1020.24 1020.56 1021.16 1021.36 1021.16 1021.52 1021.88 1022.20 1022.28 1022.24 1021.92 1021.92 1022.44 1022.68 1022.60 1022.48 1022.52 1022.60 1022.60 1022.64 1022.92 1023.08 1023.16
1014.32 1014.44 1014.80 1015.12 1015.24 1015.32 1015.28 1015.36 1015.64 1015.76 1015.64 1015.60 1015.60 1015.56 1015.64 1015.80 1016.04 1016.12 1016.24 1016.44 1016.48 1016.76 1017.08 1017.28 1017.48 1017.76 1017.96 1018.16 1018.48 1018.76 1018.92 1019.16 1019.12 1018.84 1018.96 1019.20 1019.56 1019.80 1019.88 1020.12 1020.96 1021.08 1020.88 1021.20 1021.76 1021.72 1022.08 1022.28 1022.04 1021.96 1022.24 1022.96 1022.88 1022.56 1022.44 1022.52 1022.64 1022.72 1022.84 1023.00 1023.08 1023.12
1014.56 1014.72 1014.92 1015.12 1015.32 1015.60 1015.68 1015.68 1015.84 1016.00 1015.88 1015.72 1015.60 1015.68 1015.76 1015.92 1016.04 1016.12 1016.24 1016.32 1016.52 1016.76 1017.00 1017.16 1017.48 1017.72 1018.04 1018.36 1018.64 1018.84 1019.00 1019.08 1019.76 1019.08 1019.04 1019.32 1019.56 1019.84 1020.04 1020.28 1020.56 1020.72 1020.56 1021.04 1021.92 1021.68 1021.84 1022.00 1022.20 1022.28 1022.80 1023.08 1022.76 1022.72 1022.60 1022.60 1022.72 1022.88 1022.96 1022.96 1022.96 1023.04
1014.80 1014.84 1014.96 1015.16 1015.44 1015.88 1015.92 1015.76 1015.88 1016.00 1016.16 1016.08 1015.96 1016.00 1016.00 1016.00 1016.04 1016.16 1016.28 1016.40 1016.56 1016.80 1017.00 1017.16 1017.40 1017.72 1018.04 1018.36 1018.76 1019.04 1019.20 1019.24 1019.84 1019.36 1019.16 1019.40 1019.64 1019.80 1020.20 1020.60 1020.72 1020.68 1021.04 1021.28 1021.52 1021.56 1021.56 1021.84 1022.24 1022.44 1022.68 1022.72 1022.76 1022.80 1022.72 1022.84 1022.92 1023.00 1023.00 1022.96 1022.96 1023.00
1014.88 1014.76 1014.96 1015.24 1015.48 1015.80 1016.12 1016.04 1015.88 1016.00 1015.92 1015.96 1016.16 1016.12 1016.12 1016.04 1016.00 1016.08 1016.28 1016.44 1016.60 1016.76 1016.96 1017.12 1017.40 1017.72 1018.04 1018.32 1018.64 1018.92 1019.08 1019.16 1019.84 1019.60 1019.12 1019.32 1019.40 1019.64 1019.92 1020.20 1020.68 1021.04 1021.00 1021.32 1021.68 1021.64 1021.64 1021.44 1022.00 1022.64 1022.80 1023.04 1023.12 1022.92 1022.84 1023.00 1023.16 1023.08 1023.00 1022.96 1022.96 1023.04
1014.76 1014.76 1014.80 1014.88 1015.04 1015.40 1015.48 1015.40 1015.32 1015.56 1015.68 1015.64 1015.96 1016.20 1016.24 1016.08 1015.96 1016.08 1016.32 1016.60 1016.76 1016.84 1016.96 1017.08 1017.40 1017.64 1018.00 1018.32 1018.68 1018.84 1019.00 1019.20 1019.88 1019.32 1019.16 1019.24 1019.36 1019.48 1019.80 1020.16 1020.48 1020.92 1020.80 1021.08 1021.60 1021.60 1021.64 1021.52 1022.48 1022.68 1023.16 1023.52 1023.52 1023.36 1023.32 1023.32 1023.28 1023.20 1023.04 1023.00 1023.00 1023.04
1014.68 1014.72 1014.76 1014.72 1014.88 1015.16 1015.20 1015.20 1015.12 1015.32 1015.44 1015.64 1015.80 1015.96 1016.00 1016.00 1016.04 1016.20 1016.48 1016.64 1016.80 1016.88 1017.08 1017.28 1017.40 1017.64 1017.92 1018.28 1018.52 1018.72 1018.92 1019.40 1019.76 1019.08 1019.16 1019.28 1019.36 1019.60 1019.80 1020.12 1020.44 1020.68 1021.04 1021.12 1021.28 1021.40 1021.44 1021.24 1022.12 1022.44 1022.56 1023.12 1023.88 1024.04 1023.84 1023.56 1023.40 1023.28 1023.20 1023.12 1023.04 1023.08
1014.60 1014.68 1014.64 1014.64 1014.72 1014.76 1014.88 1015.00 1015.04 1015.08 1015.20 1015.44 1015.92 1016.04 1016.20 1016.24 1016.32 1016.40 1016.68 1016.72 1016.84 1016.96 1017.16 1017.36 1017.48 1017.60 1017.80 1018.00 1018.24 1018.48 1018.68 1019.44 1019.24 1018.88 1018.88 1019.28 1019.48 1019.76 1019.92 1020.12 1020.28 1020.36 1020.44 1021.20 1021.36 1021.60 1021.20 1021.28 1021.44 1021.92 1023.12 1023.00 1023.52 1023.64 1024.48 1024.36 1024.00 1023.60 1023.32 1023.28 1023.16 1023.16
1014.36 1014.96 1014.84 1014.52 1014.60 1014.64 1014.92 1015.24 1015.36 1015.44 1015.40 1015.60 1015.76 1016.08 1016.44 1016.68 1016.60 1016.60 1016.68 1016.80 1016.92 1016.96 1017.12 1017.36 1017.44 1017.52 1017.64 1017.72 1017.88 1018.12 1018.48 1018.84 1018.76 1018.80 1018.84 1019.16 1019.48 1019.64 1019.84 1019.92 1020.04 1020.16 1020.32 1020.60 1021.24 1021.28 1021.32 1021.16 1021.24 1021.04 1021.60 1022.80 1023.64 1024.04 1023.88 1023.80 1023.88 1023.96 1023.52 1023.52 1023.36 1023.24
1013.12 1014.36 1014.60 1014.44 1014.52 1014.60 1014.84 1015.20 1015.60 1015.92 1016.12 1016.12 1016.24 1016.28 1016.48 1016.60 1016.64 1016.68 1016.72 1016.64 1016.80 1016.88 1017.04 1017.20 1017.32 1017.40 1017.40 1017.56 1017.76 1017.92 1018.20 1018.48 1018.64 1018.68 1018.80 1019.16 1019.48 1019.72 1019.84 1019.96 1019.96 1020.04 1020.28 1020.32 1020.52 1021.08 1021.40 1021.16 1021.08 1021.04 1021.04 1021.12 1021.36 1022.36 1023.12 1023.44 1023.48 1024.60 1023.72 1023.48 1023.48 1023.32
1012.40 1013.12 1013.68 1014.12 1014.40 1014.56 1014.88 1015.04 1015.20 1015.36 1015.44 1015.72 1016.00 1016.04 1016.00 1016.16 1016.32 1016.40 1016.52 1016.76 1016.80 1016.88 1017.00 1017.16 1017.28 1017.28 1017.32 1017.44 1017.64 1017.80 1018.04 1018.28 1018.52 1018.64 1018.68 1019.12 1019.60 1019.80 1019.72 1019.72 1019.72 1019.84 1020.12 1020.20 1020.48 1021.04 1021.20 1021.32 1021.28 1021.16 1021.12 1021.08 1021.16 1021.32 1021.56 1022.64 1023.56 1023.88 1024.52 1023.88 1023.52 1023.60
1012.08 1012.08 1012.80 1013.52 1014.12 1014.36 1014.72 1014.96 1015.16 1015.28 1015.44 1015.64 1015.76 1015.88 1015.92 1016.08 1016.20 1016.36 1016.60 1016.80 1016.88 1016.96 1016.96 1017.04 1017.20 1017.32 1017.32 1017.44 1017.56 1017.76 1017.88 1018.16 1018.64 1018.84 1018.60 1019.04 1019.48 1019.72 1019.48 1019.44 1019.56 1019.80 1020.00 1020.08 1020.32 1020.64 1021.04 1021.12 1021.32 1021.52 1021.24 1021.24 1021.24 1021.24 1021.44 1021.60 1021.92 1022.44 1023.24 1024.16 1024.16 1023.64
1012.48 1011.48 1012.04 1012.76 1013.60 1014.12 1014.40 1014.64 1014.80 1015.00 1015.32 1015.36 1015.44 1015.64 1015.72 1015.92 1016.16 1016.32 1016.64 1016.80 1016.88 1016.96 1017.00 1017.00 1017.08 1017.20 1017.28 1017.36 1017.48 1017.60 1017.80 1018.08 1019.12 1019.00 1018.76 1019.00 1019.12 1019.40 1019.32 1019.20 1019.64 1020.04 1019.96 1020.04 1020.16 1020.36 1020.68 1021.00 1021.08 1021.32 1021.40 1021.48 1021.40 1021.52 1021.64 1021.68 1021.92 1022.12 1022.92 1023.88 1024.32 1024.24
1012.56 1012.00 1011.40 1012.32 1013.08 1013.76 1014.08 1014.36 1014.64 1014.76 1014.96 1015.24 1015.36 1015.60 1015.72 1016.00 1016.24 1016.32 1016.56 1016.68 1016.80 1016.92 1017.00 1017.04 1017.04 1017.08 1017.20 1017.28 1017.40 1017.48 1017.64 1018.12 1019.04 1019.12 1018.92 1018.84 1019.04 1019.24 1019.32 1019.20 1019.44 1019.76 1019.84 1019.96 1020.16 1020.24 1020.48 1020.72 1020.88 1021.04 1021.08 1021.24 1021.56 1021.80 1021.92 1022.16 1022.24 1022.44 1022.76 1022.80 1023.68 1024.16
1012.16 1012.56 1011.92 1012.12 1012.80 1013.40 1013.72 1014.00 1014.24 1014.32 1014.56 1014.84 1015.12 1015.40 1015.84 1016.08 1016.16 1016.36 1016.52 1016.64 1016.76 1016.88 1016.96 1016.96 1016.92 1017.00 1017.08 1017.16 1017.28 1017.32 1017.52 1017.96 1018.68 1018.60 1018.84 1019.08 1019.12 1019.12 1019.16 1019.04 1019.16 1019.56 1019.84 1019.92 1020.04 1020.24 1020.44 1020.64 1020.80 1020.96 1021.08 1021.20 1021.36 1021.36 1021.56 1021.96 1022.24 1022.32 1022.48 1023.00 1023.52 1023.80
1012.08 1012.28 1012.16 1012.08 1012.52 1013.00 1013.36 1013.64 1013.80 1013.92 1014.20 1014.40 1014.68 1015.08 1015.44 1015.64 1015.80 1016.04 1016.32 1016.64 1016.88 1016.96 1017.00 1016.92 1016.88 1016.96 1017.00 1017.04 1017.16 1017.28 1017.36 1018.08 1018.64 1018.84 1019.20 1019.28 1019.44 1019.28 1019.16 1019.08 1019.12 1019.28 1019.60 1019.88 1019.92 1020.08 1020.36 1020.68 1020.80 1021.00 1021.08 1021.20 1021.28 1021.28 1021.32 1021.52 1021.80 1021.88 1022.20 1022.64 1022.84 1023.48
1012.24 1012.20 1012.12 1012.04 1012.36 1012.76 1013.16 1013.40 1013.60 1013.68 1013.88 1014.12 1014.40 1014.68 1014.92 1015.20 1015.44 1015.72 1015.96 1016.44 1016.72 1016.80 1016.80 1016.84 1016.84 1016.92 1016.92 1017.00 1017.16 1017.32 1017.56 1017.92 1018.44 1018.84 1019.28 1019.48 1019.44 1019.12 1019.04 1019.04 1019.08 1019.16 1019.36 1019.72 1019.88 1020.04 1020.32 1020.48 1020.60 1020.88 1021.04 1021.12 1021.20 1021.24 1021.32 1021.40 1021.56 1021.80 1022.04 1022.24 1022.60 1023.32
1012.48 1012.36 1012.28 1012.08 1012.24 1012.76 1013.12 1013.40 1013.48 1013.52 1013.68 1013.92 1014.28 1014.40 1014.60 1014.92 1015.20 1015.36 1015.60 1015.92 1016.16 1016.32 1016.48 1016.52 1016.60 1016.76 1016.84 1016.92 1017.04 1017.12 1017.28 1017.72 1017.88 1018.40 1019.12 1019.12 1018.88 1018.88 1019.24 1019.32 1019.28 1019.36 1019.48 1019.60 1019.76 1020.00 1020.12 1020.36 1020.52 1020.64 1020.76 1021.08 1021.24 1021.28 1021.36 1021.36 1021.52 1021.72 1022.00 1022.28 1022.72 1022.92
1013.12 1012.68 1012.44 1012.20 1012.24 1012.68 1013.08 1013.36 1013.40 1013.40 1013.52 1013.68 1014.04 1014.20 1014.36 1014.56 1014.88 1015.16 1015.36 1015.56 1015.80 1015.92 1016.12 1016.24 1016.28 1016.40 1016.48 1016.68 1016.84 1017.00 1017.16 1017.48 1017.84 1018.12 1018.68 1018.92 1018.80 1018.88 1019.04 1019.24 1019.36 1019.36 1019.44 1019.52 1019.80 1019.96 1020.12 1020.24 1020.48 1020.64 1020.76 1020.88 1021.08 1021.24 1021.32 1021.36 1021.44 1021.60 1021.64 1021.84 1022.12 1022.52
1013.88 1013.20 1012.88 1012.48 1012.36 1012.60 1013.00 1013.16 1013.28 1013.36 1013.36 1013.40 1013.60 1013.84 1014.08 1014.28 1014.60 1014.76 1015.00 1015.16 1015.36 1015.56 1015.64 1015.80 1015.92 1016.04 1016.20 1016.36 1016.64 1016.88 1017.12 1017.44 1017.72 1018.00 1018.36 1018.68 1018.88 1018.84 1018.92 1019.20 1019.28 1019.28 1019.36 1019.36 1019.76 1020.04 1020.12 1020.20 1020.40 1020.52 1020.64 1020.72 1020.92 1021.16 1021.28 1021.28 1021.32 1021.40 1021.48 1021.56 1021.84 1021.96
1013.96 1013.80 1013.48 1013.08 1012.64 1012.64 1012.92 1013.12 1013.28 1013.20 1013.12 1013.20 1013.40 1013.56 1013.72 1013.96 1014.20 1014.44 1014.60 1014.76 1014.96 1015.12 1015.24 1015.44 1015.64 1015.72 1015.96 1016.08 1016.32 1016.64 1017.08 1017.40 1017.68 1018.00 1018.32 1018.60 1018.80 1018.84 1018.68 1018.76 1019.08 1019.32 1019.44 1019.44 1019.64 1019.88 1020.04 1020.16 1020.28 1020.44 1020.60 1020.68 1020.76 1020.96 1021.16 1021.20 1021.20 1021.24 1021.32 1021.44 1021.64 1021.72
Wind_Speed
7 7 6 6 5 5 8 11 9 10 10 10 9 10 11 13 12 12 12 11 9 6 5 6 8 6 12 8 11 12 13 13 11 11 10 10 10 9 10 8 6 2 2 2 1 1 4 6 8 7 7 6 9 6 7 8 9 7 6 5 4 5
8 7 6 5 4 5 7 8 5 5 5 7 8 9 8 6 7 5 9 8 5 6 5 5 5 8 5 7 9 13 13 12 11 10 10 10 10 10 9 9 7 3 1 1 1 1 2 5 6 7 5 5 5 4 6 8 8 8 7 5 5 7
9 7 7 5 5 6 6 5 6 5 5 6 6 5 4 5 4 5 4 4 4 5 5 4 5 6 6 8 8 13 13 12 11 10 10 10 10 10 9 8 7 5 2 1 1 3 2 3 4 6 5 4 3 5 6 8 8 7 6 4 3 10
10 6 7 7 6 5 5 5 5 5 5 5 5 5 4 5 5 5 5 5 5 5 5 5 9 13 10 6 7 11 13 13 11 9 9 7 8 9 9 7 6 5 3 1 2 3 3 3 3 3 3 5 4 7 6 7 7 6 5 5 5 11
13 12 10 7 9 7 6 6 5 6 5 5 5 4 3 3 4 6 6 6 5 4 4 5 4 5 4 5 5 4 5 4 4 4 6 3 3 4 5 4 3 3 2 3 3 3 2 3 2 4 7 6 4 6 7 7 6 6 6 5 5 11
10 11 11 12 12 11 9 8 7 7 6 5 5 5 5 5 6 7 6 6 6 6 5 5 6 5 5 5 5 4 5 5 5 4 3 4 4 4 4 5 4 4 4 3 4 3 1 3 3 6 6 6 5 4 7 6 6 7 6 5 5 10
10 8 7 2 6 10 8 7 8 7 6 5 5 6 5 5 5 7 7 7 7 6 5 6 6 6 5 5 5 5 5 4 4 5 5 4 4 4 5 5 5 5 5 4 5 2 3 3 3 6 5 7 6 5 6 6 6 7 6 5 5 10
11 11 9 5 3 7 8 8 9 9 8 7 6 6 5 5 6 7 7 7 7 6 7 7 6 6 5 5 4 4 4 4 4 4 5 3 4 3 3 4 5 5 5 5 4 2 3 4 3 5 6 6 6 5 5 5 6 7 6 5 2 8
10 10 10 8 8 6 7 7 8 9 8 7 7 6 6 5 5 5 6 7 7 7 6 6 6 6 4 4 3 2 2 2 4 5 5 4 3 4 3 3 3 4 4 3 4 3 3 3 4 5 6 9 10 6 4 4 5 7 6 4 2 6
11 11 11 9 8 8 7 8 9 9 8 8 7 7 6 5 5 5 6 6 6 7 7 7 7 5 5 4 3 2 2 1 2 3 6 6 5 5 5 3 3 3 4 4 5 4 4 4 6 4 6 9 7 5 4 2 6 7 6 4 1 2
9 11 11 10 8 7 4 5 6 7 8 7 7 7 6 5 5 5 6 5 5 5 6 6 6 5 5 4 4 2 1 0 2 2 5 5 5 7 6 6 5 5 5 5 4 4 4 5 5 5 6 8 8 4 1 2 6 7 6 3 1 1
10 10 10 8 7 7 6 4 4 5 6 7 7 7 7 6 6 6 6 6 6 6 5 6 6 5 5 5 4 2 1 1 3 3 3 2 4 6 5 4 2 2 4 6 6 5 5 7 7 6 6 7 5 4 4 3 7 6 5 2 1 1
8 9 9 9 8 5 5 4 4 3 4 6 6 6 7 6 6 6 6 7 7 6 5 6 6 6 5 4 4 2 0 1 4 2 3 2 2 2 3 3 6 5 5 6 7 9 10 7 6 5 5 6 6 4 2 5 6 6 5 3 3 3
7 9 9 8 7 6 6 6 4 4 4 5 4 5 5 5 5 5 6 7 7 7 6 5 6 6 5 5 3 2 2 0 0 1 3 4 4 4 4 5 5 6 6 7 9 11 8 5 3 3 4 4 5 5 5 1 3 4 5 5 4 3
6 7 10 9 8 7 6 6 6 5 4 4 4 5 5 5 5 6 6 5 7 7 6 6 5 6 5 4 4 4 3 2 4 3 4 3 5 6 6 5 4 7 7 7 7 7 8 6 6 5 4 4 5 4 4 3 2 5 6 5 4 4
6 7 9 9 7 7 7 7 6 6 5 4 4 5 5 6 6 5 5 5 6 7 6 5 6 6 5 4 5 4 3 2 3 4 5 3 5 7 6 5 4 6 9 6 6 8 7 6 5 5 2 3 5 4 4 5 5 5 5 5 5 4
8 8 10 8 7 6 6 6 5 6 6 5 5 4 4 5 5 5 4 5 6 6 7 6 5 6 5 5 4 2 1 2 2 4 4 4 6 7 5 3 7 11 8 4 5 8 6 6 5 4 3 2 3 3 4 4 4 5 5 5 4 4
7 7 8 9 8 7 4 4 5 4 3 4 4 4 4 4 5 5 5 5 6 6 6 6 6 5 5 5 5 4 2 5 4 4 4 5 6 6 5 6 8 8 7 5 6 7 7 7 7 5 5 1 2 2 4 5 4 4 5 5 4 3
9 8 7 9 9 8 4 2 3 4 4 3 3 3 3 4 4 4 4 6 6 6 6 7 7 5 5 5 5 3 2 4 5 2 4 5 6 5 5 6 8 6 5 4 9 6 8 7 8 7 7 3 3 3 3 5 4 5 4 4 4 4
7 8 7 9 9 8 5 2 1 2 3 4 4 3 2 3 3 4 4 5 6 6 5 6 6 6 6 6 5 3 3 3 2 3 5 6 5 5 8 7 6 7 5 3 5 6 7 7 6 7 6 5 4 4 4 4 4 3 4 3 3 3
6 8 8 8 9 10 8 4 1 1 2 3 5 5 4 4 4 4 4 4 4 5 5 6 6 6 6 5 4 4 3 4 1 3 4 5 5 6 5 6 7 4 7 6 4 6 6 7 9 6 6 5 5 3 2 3 3 2 3 3 3 4
6 7 8 9 9 9 9 8 6 6 3 4 5 5 5 4 4 4 5 4 3 4 5 5 6 6 5 5 4 5 4 4 4 2 4 5 5 6 6 4 4 5 3 6 5 7 8 9 4 7 7 4 5 4 2 3 1 1 2 2 3 2
6 7 7 8 9 8 7 7 6 5 6 4 1 2 4 4 3 4 4 4 3 4 4 4 5 5 5 6 6 6 5 3 5 5 5 6 6 6 5 5 4 5 6 2 4 4 7 2 6 5 5 6 3 3 1 2 2 1 1 1 2 2
6 5 7 7 7 7 9 8 5 5 5 2 2 4 4 3 3 3 5 5 3 4 5 5 4 4 4 6 7 7 6 6 6 5 6 6 5 5 4 4 3 5 6 7 3 4 4 1 5 10 5 2 4 4 5 3 1 1 2 1 2 1
6 3 2 7 6 6 9 8 6 4 3 2 2 4 6 6 4 5 5 4 5 5 5 5 5 5 4 6 6 6 7 7 5 5 5 6 6 5 5 5 5 6 6 7 6 3 4 2 4 2 6 6 3 2 3 4 4 1 1 1 0 1
12 6 6 6 6 8 9 10 10 9 8 6 6 6 9 9 8 8 8 5 5 5 5 4 5 5 4 5 6 6 6 6 5 5 5 5 5 4 4 4 4 5 5 4 8 6 4 2 2 1 2 3 5 5 7 6 4 2 1 0 1 0
14 11 9 7 7 8 8 9 11 10 10 10 9 5 4 5 6 6 6 6 6 4 5 5 4 3 5 5 5 5 5 5 5 3 3 5 6 5 5 5 4 4 6 5 6 7 7 6 1 0 0 1 1 1 8 9 4 5 3 2 1 1
10 13 11 10 9 8 9 8 8 8 8 8 8 8 7 6 5 6 7 6 5 4 4 5 5 4 5 6 6 5 5 5 5 4 4 4 6 5 4 4 5 3 3 4 7 7 7 6 6 3 0 0 1 4 7 3 5 6 6 7 1 2
7 14 14 14 12 9 8 9 9 8 8 6 7 7 6 6 6 5 6 5 5 5 4 4 5 5 5 5 5 6 6 6 8 7 5 3 4 7 6 6 5 5 5 5 5 5 6 7 5 5 3 2 3 5 4 4 5 3 4 6 2 2
6 6 14 15 12 10 9 9 8 9 10 8 8 7 7 7 6 6 6 6 5 5 5 5 5 6 6 6 6 5 5 6 11 9 5 3 2 5 3 5 5 7 5 5 4 6 7 6 4 4 3 5 4 4 5 4 3 4 3 2 8 6
8 4 9 14 12 10 10 9 8 11 11 11 11 10 9 7 6 6 7 6 5 5 4 5 4 5 6 5 5 5 5 6 7 4 6 6 4 6 7 6 5 6 7 7 6 5 5 5 5 5 3 5 6 7 7 5 7 5 5 4 6 5
9 9 9 12 12 10 10 10 7 11 11 11 12 10 11 11 9 9 8 7 4 5 5 4 3 4 5 3 3 5 4 8 8 7 7 4 3 4 5 3 5 3 5 5 4 5 6 7 5 5 4 4 4 3 4 6 6 6 6 6 7 7
9 10 10 10 11 10 10 10 9 11 10 10 10 11 11 10 8 8 7 7 6 6 5 5 5 6 5 4 3 5 5 8 8 8 10 9 8 7 5 3 4 3 5 6 6 6 7 7 7 7 6 3 4 3 5 4 5 6 5 6 7 7
9 9 9 10 10 10 10 9 8 10 10 10 10 10 9 9 8 7 7 8 8 7 7 6 6 7 8 8 6 5 6 8 7 9 10 8 8 7 6 6 4 2 4 5 5 6 6 6 5 5 5 6 4 5 5 5 5 6 6 7 7 7
6 9 9 10 10 10 10 8 8 10 10 9 10 9 9 8 9 8 8 8 7 7 6 7 8 7 7 8 6 5 5 7 7 8 11 10 7 4 5 5 3 4 4 5 5 5 5 7 6 5 4 5 6 5 5 5 6 6 5 6 6 6
10 8 7 9 9 10 9 8 9 10 11 10 9 9 9 8 8 9 9 9 8 8 7 7 7 7 7 7 7 6 6 6 8 8 8 10 9 6 3 4 5 5 5 3 6 4 4 5 6 6 6 5 5 5 5 5 5 6 6 6 5 5
9 10 6 6 9 9 8 9 9 10 10 10 11 11 10 11 11 9 9 9 8 8 8 7 6 5 7 6 6 7 6 6 7 8 8 8 8 6 5 6 6 6 4 4 5 6 5 6 6 6 5 6 7 6 6 4 4 5 5 4 5 5
Wind_Direction
118 117 119 122 122 122 134 132 131 132 132 132 139 147 153 158 154 153 149 150 146 133 132 131 131 132 133 128 132 132 131 129 128 125 123 117 114 108 109 115 117 101 111 102 70 347 334 328 330 328 333 1 31 57 97 100 99 96 92 91 90 88
121 113 114 122 128 132 137 131 128 136 133 141 148 155 153 153 152 138 150 149 140 137 121 123 129 137 122 131 134 135 136 134 132 133 127 121 118 117 115 121 129 151 204 65 322 345 315 305 301 305 316 8 54 61 101 103 101 104 104 103 106 108
121 117 122 136 141 137 137 137 141 142 141 149 160 156 145 145 126 140 140 136 123 115 116 108 127 138 128 130 135 137 136 139 137 136 130 127 127 125 120 128 139 157 191 244 298 301 280 289 300 309 337 29 47 97 113 102 100 99 103 114 117 114
113 128 171 158 137 136 142 152 149 140 142 158 165 161 167 149 151 150 120 114 118 119 111 117 145 145 135 128 138 139 141 143 141 136 135 133 130 130 129 128 140 143 184 250 276 288 279 293 312 337 14 35 57 109 112 105 107 105 105 102 99 106
152 160 157 142 136 146 161 163 158 145 151 162 172 160 130 142 146 132 127 119 121 117 117 121 102 106 115 128 119 128 136 129 125 132 141 127 136 132 124 127 121 130 197 235 258 269 296 3 13 20 30 7 92 127 110 105 106 104 94 89 98 104
150 171 161 148 151 160 163 165 162 154 155 160 131 118 122 127 131 131 123 123 116 119 121 116 122 124 128 124 129 137 142 142 142 152 161 156 168 150 156 152 160 168 208 219 238 253 104 54 24 42 33 23 60 101 101 103 102 102 96 92 105 107
142 154 153 127 147 147 151 162 157 152 148 148 140 124 122 128 129 132 130 131 129 131 130 130 133 135 136 135 144 160 163 161 159 161 175 165 185 165 169 160 171 187 196 204 230 195 82 74 37 59 46 46 40 70 97 102 105 102 94 95 113 117
157 150 148 144 157 149 149 148 151 145 145 156 139 131 132 138 137 136 136 138 137 139 142 142 142 144 148 143 163 175 164 158 182 180 174 168 175 178 180 173 173 192 193 203 196 127 94 78 58 65 72 66 48 32 59 98 111 104 99 89 82 119
153 141 146 151 156 175 157 140 140 144 147 152 138 133 133 141 140 137 137 141 145 142 141 144 148 154 141 143 138 144 112 186 206 191 160 178 170 182 198 202 200 194 202 186 145 127 112 94 73 68 77 65 38 354 36 79 109 105 99 92 78 127
152 149 151 152 158 170 165 145 152 143 144 148 142 140 138 145 144 142 140 144 147 146 151 150 152 153 142 138 135 122 134 211 244 219 159 176 182 175 190 220 229 229 206 157 147 150 119 101 82 79 79 87 81 6 356 20 108 99 94 87 75 121
156 154 154 154 153 165 144 152 143 136 145 155 146 137 141 147 147 147 146 141 139 146 145 143 145 143 137 133 143 138 157 289 295 240 189 182 162 181 180 197 203 208 199 156 132 121 99 83 86 74 83 91 109 167 86 11 73 85 92 97 102 105
164 154 150 143 142 146 144 152 135 141 150 153 146 138 144 150 158 155 155 145 142 143 141 134 136 135 133 139 148 124 57 357 275 257 177 170 139 178 183 198 197 94 113 115 98 83 80 83 81 86 90 93 91 79 88 40 96 91 95 133 164 111
162 146 139 139 142 140 126 114 122 128 133 140 148 140 145 157 157 156 156 147 145 146 138 136 136 136 134 135 130 122 185 231 252 212 86 75 73 76 90 60 67 86 69 88 91 60 37 39 63 81 94 103 101 87 65 96 105 125 149 177 172 150
172 133 128 135 140 130 133 129 115 112 131 130 130 135 140 146 150 158 158 147 143 144 136 134 135 129 127 133 141 133 108 12 251 111 75 69 55 40 44 63 94 91 87 81 82 87 84 84 60 54 78 84 86 96 86 66 114 145 144 165 168 147
170 122 122 137 144 136 136 133 140 144 131 118 128 134 136 145 155 161 155 146 142 142 134 133 132 127 126 126 133 130 202 226 186 115 71 71 88 60 58 63 86 95 82 87 100 102 115 115 113 103 100 114 101 99 99 101 209 157 130 136 127 130
158 120 118 135 136 132 138 148 149 142 126 140 154 150 150 157 157 157 150 147 140 137 132 135 133 127 130 140 140 157 225 201 144 94 89 67 80 79 61 37 38 68 65 45 79 87 105 115 109 103 105 112 107 142 145 157 162 125 122 120 117 121
152 129 122 129 130 132 141 147 134 117 131 157 161 159 158 154 150 148 150 144 143 138 136 128 119 135 138 120 109 130 202 199 140 106 104 82 76 99 108 97 57 84 125 160 112 103 109 111 120 109 80 43 138 151 121 113 112 117 124 119 125 125
144 135 127 136 143 131 149 122 109 116 131 154 163 162 152 147 145 149 147 141 137 132 137 127 114 117 122 130 125 131 111 345 325 115 114 92 96 110 143 110 87 109 155 131 109 128 121 119 120 116 83 165 146 106 100 97 95 98 110 119 118 120
145 143 136 134 132 116 97 41 88 116 136 155 162 149 135 139 143 148 151 142 137 139 145 129 122 120 119 115 114 122 130 151 270 140 114 105 103 103 93 82 110 139 159 144 145 146 128 131 128 125 131 172 110 92 78 88 91 95 96 110 120 122
146 148 135 134 127 119 121 190 170 121 143 159 150 142 144 135 149 156 150 140 141 137 137 128 115 117 125 129 123 139 136 124 226 233 117 110 115 118 114 116 135 138 142 113 116 126 133 126 113 111 110 83 75 71 57 77 88 93 107 108 107 107
158 149 144 144 142 139 145 179 239 222 215 180 152 153 159 156 166 151 136 131 138 133 125 117 120 133 132 131 133 133 152 118 195 235 126 129 138 120 120 137 133 161 141 131 111 123 135 122 113 86 77 85 75 65 69 89 90 93 103 116 107 106
159 153 153 152 150 152 162 173 177 175 179 199 160 160 164 172 177 138 131 118 115 138 134 137 141 141 134 136 142 130 123 112 210 156 101 114 119 124 131 138 140 141 136 137 129 151 148 123 114 138 134 107 66 47 68 74 78 91 116 117 112 116
166 158 160 156 155 158 157 161 174 166 180 184 137 114 166 169 153 139 130 150 147 146 135 133 140 149 142 161 155 145 138 140 215 141 124 130 130 129 146 152 165 152 125 67 103 156 173 143 138 125 114 104 134 99 18 11 1 72 65 123 123 109
171 172 167 167 162 156 152 152 160 165 178 158 133 132 118 132 136 126 139 153 158 149 145 154 162 159 180 162 158 159 145 171 197 148 155 139 142 138 144 152 158 134 134 125 126 185 209 184 142 139 142 160 157 122 123 233 190 330 58 55 90 105
140 220 200 166 166 149 140 138 135 129 119 80 69 107 128 148 165 159 157 163 167 163 159 164 171 178 186 159 156 153 155 171 164 161 160 144 153 164 158 172 171 142 157 148 145 156 217 217 165 179 136 120 104 143 202 162 149 1 39 18 352 196
146 183 191 164 158 149 149 148 141 143 154 166 165 164 169 167 167 170 175 169 161 169 160 164 173 191 168 147 153 159 154 158 163 169 173 146 136 135 168 172 178 147 162 175 149 151 165 200 177 147 144 159 160 168 158 160 126 176 289 246 193 283
157 163 154 158 157 150 147 152 154 157 160 165 169 183 167 164 163 161 156 168 169 161 163 167 180 169 154 154 161 169 163 155 160 145 138 134 140 152 180 181 176 165 172 145 142 155 167 170 105 15 6 178 154 163 144 149 176 128 112 323 7 19
172 152 150 152 159 161 156 158 155 156 160 161 171 171 171 163 157 156 159 165 158 164 163 162 172 173 157 160 169 176 171 170 127 113 186 163 159 142 170 175 181 162 142 159 165 162 166 165 161 184 36 100 35 125 141 103 144 150 136 141 186 322
219 155 149 154 159 168 165 166 162 160 160 165 162 159 154 155 156 155 148 154 155 163 175 175 175 181 175 173 178 181 180 170 110 171 208 183 169 137 167 189 174 149 178 177 166 164 159 172 153 164 129 65 90 110 111 117 134 113 134 131 111 188
225 196 146 151 159 165 166 169 165 164 160 158 151 149 152 158 155 153 154 161 160 162 176 187 183 185 181 181 183 185 176 148 133 172 174 152 177 124 167 209 178 161 163 173 162 162 172 169 154 158 162 154 123 112 99 93 103 114 73 106 153 172
177 222 151 150 157 165 167 177 170 162 161 156 155 153 152 160 155 154 160 165 164 173 176 186 172 169 175 173 181 181 176 137 120 153 136 151 176 159 180 200 183 161 158 172 172 161 151 154 148 155 159 156 157 157 163 155 159 153 145 138 117 130
169 176 166 157 160 164 170 179 171 160 158 158 156 157 161 166 170 167 165 162 150 151 181 193 164 128 153 155 173 174 172 109 142 132 116 126 136 184 156 200 179 176 143 143 150 149 145 148 149 148 159 157 160 147 118 135 160 149 143 149 145 147
174 175 172 164 162 166 171 181 172 161 159 157 158 160 165 165 170 164 156 143 160 171 182 174 175 154 186 175 183 150 135 121 144 138 137 146 166 183 146 188 202 174 145 155 161 158 159 164 155 157 167 154 148 135 137 146 138 141 135 136 141 144
180 183 177 169 165 166 175 181 174 164 162 158 158 163 164 164 166 165 157 163 170 171 175 180 172 166 174 176 170 154 133 125 136 128 129 137 163 174 152 174 188 166 155 158 150 162 165 158 153 155 147 141 155 153 151 151 148 137 147 139 149 152
217 194 186 175 168 171 175 178 170 164 163 156 159 165 167 167 165 166 168 169 171 171 171 168 161 164 156 158 154 143 137 125 118 120 127 145 159 178 166 160 169 149 143 150 153 150 158 158 153 150 151 154 150 152 163 163 154 163 163 167 153 156
299 226 205 177 178 173 175 174 170 167 168 157 160 165 167 168 169 171 170 171 169 169 163 153 153 151 151 146 142 144 140 136 135 133 129 135 144 160 155 168 158 159 159 148 142 140 164 157 153 158 164 156 145 170 171 171 168 171 180 175 148 143
309 314 247 205 183 180 176 173 176 176 170 164 164 167 170 169 168 171 168 168 155 152 142 138 140 135 136 134 140 142 138 137 128 135 137 137 139 150 174 185 159 155 149 149 147 153 162 162 165 155 165 165 168 167 175 173 180 186 193 175 165 153